Tracking 19212 objects as of 17-Jul-2018
HD Live streaming from Space Station
objects crossing your sky now

FLOCK 2K 37

Track FLOCK 2K 37 now!
10-day predictions
FLOCK 2K 37 is classified as:


NORAD ID: 42867
Int'l Code: 2017-042AU
Perigee: 454.5 km
Apogee: 469.9 km
Inclination: 97.0 °
Period: 93.7 minutes
Semi major axis: 6833 km
RCS: Unknown
Launch date: July 14, 2017
Source: United States (US)
Launch site: TYURATAM MISSILE AND SPACE COMPLEX (TTMTR)
aabbcc
Your satellite tracking list
Your tracking list is empty




NASA's NSSDC Master Catalog

Two Line Element Set (TLE):
1 42867U 17042AU  18197.78063305 +.00002986 +00000-0 +84474-4 0  9995
2 42867 096.9771 092.8979 0011292 016.9377 343.2243 15.36985971056185
Source of the keplerian elements: AFSPC